Regional Weather Roundup
Issued by NWS

Home | Current Version | Previous Version | Text Only | Print | Product List | Glossary Off
Versions: 1 2 3 4 5 6 7 8 9 10 11 12 13 14 15 16 17 18 19 20 21 22 23 24 25 26 27 28 29 30 31 32 33 34 35 36 37 38 39 40 41 42 43 44 45 46 47 48 49 50

000
ASUS43 KLOT 280102
RWRIL

ILLINOIS REGIONAL WEATHER ROUNDUP
NATIONAL WEATHER SERVICE CHICAGO/ROMEOVILLE IL
800 PM CDT FRI MAR 27 2015

NOTE: "FAIR" INDICATES FEW OR NO CLOUDS BELOW 12,000 FEET WITH NO
SIGNIFICANT WEATHER AND/OR OBSTRUCTIONS TO VISIBILITY.

* THESE STATIONS ARE NOT UNDER NWS QUALITY CONTROL. THEY ALSO MAY NOT
  REPORT WEATHER SUCH AS PRECIPITATION OR FOG.

ILZ001-002-007-009-015-016-024-280200-
NORTHWEST ILLINOIS

CITY           SKY/WX    TMP DP  RH WIND       PRES   REMARKS
MOLINE         CLEAR     33   8  35 NE5       30.17R WCI  29
STERLING*      CLEAR     28  12  50 NE3       30.18S
$$

ILZ003-004-008-010-011-017-018-280200-
NORTH CENTRAL ILLINOIS

CITY           SKY/WX    TMP DP  RH WIND       PRES   REMARKS
ROCKFORD       CLEAR     28   5  37 NE9       30.19R WCI  19
$$

ILZ005-006-012>014-019>023-280200-
NORTHEAST ILLINOIS

CITY           SKY/WX    TMP DP  RH WIND       PRES   REMARKS
CHICAGO-OHARE  PTCLDY    25  14  63 N12       30.18S WCI  14
CHICAGO-MIDWAY PTCLDY    26  13  57 NE14      30.19R WCI  14
AURORA         CLEAR     27  13  55 NE10      30.18R WCI  17
WAUKEGAN       FAIR      23  13  65 N6        30.19R WCI  16
DUPAGE AIRPORT CLEAR     25  13  60 E10       30.18R WCI  15
WHEELING       CLEAR     24  12  60 NE9       30.21R WCI  14
NORTHERLY ISL    N/A     25  13  60 MISG        N/A
$$

LMZ740>746-280200-
SOUTHERN LAKE MICHIGAN

STATION/POSITION SKY/WX   TEMP    WIND        PRES    VSBY  WAVE
                          AIR SEA DIR/SP/G                  HT/PER
                          (F)     (DEG/KT/KT) (MB)    (MI)  (FT/S)
HARRISON CRIB              24      10/ 19/ 23   N/A
BURNHAM HARBOR             25      10/ 12/ 18   N/A
CALUMET HARBOR             25     350/ 13/ 18 1021.0R
BURNS HARBOR               25      10/ 17/ 25 1022.4R
MICHIGAN CITY              23     340/ 24/ 28   N/A
$$

ILZ025>027-034>036-040-047-049-050-058-095>099-280200-
WEST-CENTRAL ILLINOIS

CITY           SKY/WX    TMP DP  RH WIND       PRES   REMARKS
QUINCY         FAIR      33  16  49 NE6       30.15S WCI  28
GALESBURG*     CLEAR     29  13  50 N5        30.16S WCI  24
$$

ILZ028>032-037-038-041>044-048-051>054-059>061-280200-
CENTRAL ILLINOIS

CITY           SKY/WX    TMP DP  RH WIND       PRES   REMARKS
DECATUR        CLEAR     28  15  58 N7        30.16S WCI  21
PEORIA         CLEAR     32  11  41 N3        30.18R
SPRINGFIELD    CLEAR     32  14  47 N7        30.18R WCI  26
TAYLORVILLE    NOT AVBL
$$

ILZ033-039-045-046-055>057-062-063-280200-
EAST-CENTRAL ILLINOIS

CITY           SKY/WX    TMP DP  RH WIND       PRES   REMARKS
CHAMPAIGN      CLEAR     27  14  58 NW7       30.15R WCI  19
MATTOON        CLEAR     30  17  58 N10       30.14S WCI  21
$$

ILZ079-100>102-280200-
SOUTHWEST ILLINOIS

CITY           SKY/WX    TMP DP  RH WIND       PRES   REMARKS
ALTON          PTCLDY    37  14  38 NW7       30.16R WCI  32
BELLEVILLE     PTCLDY    36  20  53 N6        30.15R WCI  31
CAHOKIA*       PTCLDY    36  22  56 N7        30.16S WCI  30
$$

ILZ064>066-069>071-074>076-080>082-084>086-088>090-092>094-280200-
SOUTH-CENTRAL ILLINOIS

CITY           SKY/WX    TMP DP  RH WIND       PRES   REMARKS
CARBONDALE     CLEAR     34  21  59 N3        30.16S
MT. VERNON     MOCLDY    36  16  44 CALM      30.15S
$$

ILZ067-068-072-073-078-083-087-091-280200-
SOUTHEAST ILLINOIS

CITY           SKY/WX    TMP DP  RH WIND       PRES   REMARKS
LAWRENCEVILLE  MOCLDY    32  20  61 N12       30.16R WCI  23
ROBINSON*      PTCLDY    31  20  63 N6        30.16S WCI  25
$$

ABBREVIATIONS USED IN REMARKS
   TC - TEMPERATURE IN CELSIUS
  WCI - WIND CHILL INDEX
   HX - HEAT INDEX
  VSB - VISIBILITY
$$



USA.gov is the U.S. government's official web portal to all federal, state and local government web resources and services.